Location: Bosmont
(49.7318°N, 3.8587°E)
Time: 08:36:56
(UTC+00:00)

Cosmos 2058 Rocket - Pass Details

Date: 08 February 2023
Orbit: 610 x 637 km, 82.5° (Epoch: 23 March)

Event Time Altitude Azimuth Distance (km) Brightness Sun altitude
Rises 17:56:05 0° 350° (N) 2,906 6.5 -10.9°
Reaches altitude 10° 17:58:19 10° 350° (N) 1,999 5.7 -11.2°
Maximum altitude 18:02:45 88° 76° (ENE) 632 3.0 -12.0°
Drops below altitude 10° 18:07:12 10° 171° (S) 2,000 5.7 -12.7°
Sets 18:09:26 0° 171° (S) 2,906 6.5 -13.0°
